Location: Minneapolis
(44.9800°N, 93.2640°W)
Time: 06:08:48
(UTC-05:00)

Iridium 96 - Visible Passes

Search period start: 24 May 2015 00:00
Search period end: 03 June 2015 00:00
Orbit: 774 x 780 km, 86.4° (Epoch: 23 May)

Date Brightness Start Highest point End Pass type
(mag) Time Alt. Az. Time Alt. Az. Time Alt. Az.
24 May 8.2 01:52:47 10° E 01:53:10 10° ENE 01:53:53 10° ENE visible
24 May 5.6 03:29:36 21° S 03:33:07 81° E 03:38:21 10° N visible
25 May 6.4 02:56:19 19° SSE 02:59:40 45° E 03:04:38 10° NNE visible
25 May 6.9 04:36:48 11° SW 04:40:41 23° WNW 04:44:46 10° NNW visible
26 May 7.2 02:23:01 14° SE 02:26:18 26° E 02:30:36 10° NNE visible
26 May 6.1 04:03:30 19° SW 04:06:52 40° W 04:11:46 10° N visible
27 May 7.9 01:50:20 10° ESE 01:53:03 15° ENE 01:56:00 10° NE visible
27 May 5.5 03:30:12 26° SSW 03:33:13 72° W 03:38:27 10° N visible
28 May 5.8 02:56:53 27° SSE 02:59:41 65° E 03:04:52 10° N visible
28 May 7.3 04:37:36 10° WSW 04:41:02 17° WNW 04:44:16 10° NNW visible
29 May 6.7 02:23:33 21° SE 02:26:17 36° E 02:31:03 10° NNE visible
29 May 6.6 04:04:01 17° SW 04:07:07 29° WNW 04:11:36 10° NNW visible
30 May 7.5 01:50:13 14° ESE 01:52:58 21° E 01:56:51 10° NNE visible
30 May 5.9 03:30:41 26° SW 03:33:22 50° W 03:38:27 10° N visible
31 May 8.0 01:18:08 10° E 01:19:44 12° ENE 01:21:39 10° NE visible
31 May 5.5 02:57:20 33° S 02:59:45 90° WSW 03:05:01 10° N visible
31 May 7.6 04:39:22 10° W 04:41:26 12° WNW 04:43:12 10° NW visible
01 Jun 6.1 02:23:59 30° SSE 02:26:18 51° E 02:31:21 10° NNE visible
01 Jun 7.1 04:04:27 14° WSW 04:07:25 21° WNW 04:11:15 10° NNW visible
02 Jun 7.0 01:50:37 21° ESE 01:52:54 29° E 01:57:23 10° NNE visible
02 Jun 6.3 03:31:06 23° SW 03:33:34 36° W 03:38:20 10° NNW visible
